CZ-6A DEB, 54585

Orbit data source: Space-Track

CZ-6A DEB, 54585 is space debris in SSO originally from a launch on Fri, 11 Nov 2022 UTC launched from the Taiyaun Space Center, China (TSC). Debris objects in space refer to the collection of defunct objects orbiting the Earth. Examples of debris include non-operational satellites, rocket bodies, and fragments generated from explosions, collisions, or faulty payload assembly.

Loading next visibility...
Identifier
54585, 2022-151MM
Orbit
SSO
Country
Flag of CNCN / PRC
Related business
Manufacturer
SAST
Mission
Spacecraft
Bus & Motor
Unknown
Mass
Unknown
Launch date (UTC)
2022-11-11 (4 years ago)
Launch vehicle
Unknown
Launch site
Taiyaun Space Center, China (TSC)
Object type
Payload
Rocket body
Debris
Shape & HBR
Unknown shape, 0.1 m
Radar Cross Section
Small (<0.1 m²)

Expand to show TLE details & history
Last TLE update: 20 hours ago

TLE from 20 hours ago
0 CZ-6A DEB
1 54585U 22151MM  26144.18457669  .00143474  00000-0  52717-2 0  9998
2 54585  98.6170 233.6331 0025277 266.8723  92.9620 15.27005277116505
Epoch: 2026-05-24T04:25Z
TLE epoch observation values (Epoch: 2026-05-24T04:25:47.426Z)
Latitude
0.00001°
Longitude
-74.60487°
Altitude
488.773 km
Speed
7.62 km/s
True Right ascension
15h 34m 31s
True Declination
0° 00' 00"
Sunlit
Object was in full shadow at epoch
Visualization orbit readout
Latitude
Unknown
Longitude
Unknown
Altitude
Unknown
Speed
Unknown
Apparent Right ascension
Unknown
Apparent Declination
Unknown
Sunlit
N/A
Visualization observer readout
Local Sidereal Time
09:54:17
Azimuth
Unknown
Elevation
Unknown
Doppler factor
Unknown
Orbital elements
Apogee altitude
499.123 km
Perigee altitude
464.443 km
Semi-major axis
6,859.92 km
Eccentricity
0.00253
Inclination
98.617°
RAAN
233.6331°
Arg. of periapsis
266.8723°
True anomaly
93.25122°
Mean anomaly
92.962°
Eccentric anomaly
93.10661°
Mean motion
3.82001 °/min
Orbital period
94.24 mins
BSTAR
0.0052717
Loading maneuver chart data...
Computing Atmospheric mass density...

Documentation

Showing up to 5 results
|